START_TIME,STEP,MOV.,AL01,t_acc.,AL02,t_acc.,E37,t_acc.,H21,t_acc.
1979-08-02 12:00:33.120 ,0,0,0.,24.0,0.,24.0,1.,24.0,0.,24.0
1979-08-02 12:00:57.120 ,1,1,0.,24.0,0.,24.0,0.,24.0,0.,24.0
1979-08-02 12:01:21.120 ,1,0,0.,24.0,0.,24.0,0.,24.0,0.,24.0
1979-08-02 12:01:45.120 ,2,1,0.,24.0,0.,24.0,0.,24.0,0.,24.0
1979-08-02 12:02:09.120 ,2,0,0.,24.0,0.,24.0,0.,24.0,0.,24.0
1979-08-02 12:02:33.120 ,3,1,0.,24.0,0.,24.0,1.,24.0,0.,24.0
1979-08-02 12:02:57.120 ,3,0,0.,24.0,0.,24.0,0.,24.0,0.,24.0
1979-08-02 12:03:21.120 ,4,1,0.,24.0,0.,24.0,0.,24.0,0.,24.0
1979-08-02 12:03:45.120 ,4,0,0.,24.0,0.,24.0,1.,24.0,0.,24.0
1979-08-02 12:04:09.120 ,5,1,0.,24.0,0.,24.0,0.,24.0,0.,24.0
1979-08-02 12:04:33.120 ,5,0,0.,24.0,0.,24.0,1.,24.0,0.,24.0
1979-08-02 12:04:57.120 ,6,1,1.,24.0,0.,24.0,0.,24.0,0.,24.0
1979-08-02 12:05:21.120 ,6,0,0.,24.0,0.,24.0,1.,24.0,0.,24.0
1979-08-02 12:05:45.120 ,7,1,3.,24.0,0.,24.0,0.,24.0,0.,24.0
1979-08-02 12:06:09.120 ,7,0,38.,24.0,2.,24.0,0.,24.0,0.,24.0
1979-08-02 12:06:33.120 ,7,1,32.,24.0,0.,24.0,0.,24.0,0.,24.0
1979-08-02 12:06:57.120 ,7,0,29.,24.0,0.,24.0,0.,24.0,0.,24.0
1979-08-02 12:07:21.120 ,6,1,15.,24.0,0.,24.0,1.,24.0,0.,24.0
1979-08-02 12:07:45.120 ,6,0,0.,24.0,0.,24.0,1.,24.0,0.,24.0
1979-08-02 12:08:09.120 ,5,1,0.,24.0,0.,24.0,1.,24.0,0.,24.0
1979-08-02 12:08:33.120 ,5,0,0.,24.0,1.,24.0,2.,24.0,0.,24.0
1979-08-02 12:08:57.120 ,4,1,0.,24.0,0.,24.0,2.,24.0,0.,24.0
1979-08-02 12:09:21.120 ,4,0,0.,24.0,0.,24.0,2.,24.0,0.,24.0
1979-08-02 12:09:45.120 ,3,1,0.,24.0,1.,24.0,1.,24.0,0.,24.0
1979-08-02 12:10:09.120 ,3,0,0.,24.0,0.,24.0,0.,24.0,0.,24.0
1979-08-02 12:10:33.120 ,2,1,0.,24.0,0.,24.0,1.,24.0,0.,24.0
1979-08-02 12:10:57.120 ,2,0,0.,24.0,0.,24.0,1.,24.0,0.,24.0
1979-08-02 12:11:21.120 ,1,1,0.,24.0,0.,24.0,1.,24.0,0.,24.0
1979-08-02 12:11:45.120 ,1,0,0.,24.0,0.,24.0,1.,24.0,0.,24.0
1979-08-02 12:12:09.120 ,0,1,0.,24.0,0.,24.0,1.,24.0,0.,24.0
1979-08-02 12:12:33.120 ,0,0,0.,24.0,0.,24.0,2.,24.0,0.,24.0
1979-08-02 12:12:57.120 ,0,1,0.,24.0,0.,24.0,0.,24.0,0.,24.0
1979-08-02 12:13:21.120 ,0,0,0.,24.0,1.,24.0,2.,24.0,0.,24.0
1979-08-02 12:13:45.110 ,1,1,0.,24.0,0.,24.0,0.,24.0,0.,24.0
1979-08-02 12:14:09.110 ,1,0,0.,24.0,0.,24.0,1.,24.0,0.,24.0
1979-08-02 12:14:33.110 ,2,1,0.,24.0,0.,24.0,0.,24.0,0.,24.0
1979-08-02 12:14:57.110 ,2,0,0.,24.0,0.,24.0,0.,24.0,0.,24.0
1979-08-02 12:15:21.110 ,3,1,0.,24.0,0.,24.0,1.,24.0,0.,24.0
1979-08-02 12:15:45.110 ,3,0,0.,24.0,0.,24.0,1.,24.0,0.,24.0
1979-08-02 12:16:09.110 ,4,1,0.,24.0,0.,24.0,2.,24.0,0.,24.0
1979-08-02 12:16:33.110 ,4,0,0.,24.0,0.,24.0,2.,24.0,0.,24.0
1979-08-02 12:16:57.110 ,5,1,0.,24.0,0.,24.0,1.,24.0,0.,24.0
1979-08-02 12:17:21.110 ,5,0,0.,24.0,0.,24.0,0.,24.0,0.,24.0
1979-08-02 12:17:45.110 ,6,1,0.,24.0,0.,24.0,1.,24.0,0.,24.0
1979-08-02 12:18:09.110 ,6,0,0.,24.0,1.,24.0,3.,24.0,0.,24.0
1979-08-02 12:18:33.110 ,7,0,7.,24.0,0.,24.0,1.,24.0,0.,24.0
1979-08-02 12:18:57.110 ,7,0,30.,24.0,0.,24.0,0.,24.0,0.,24.0
1979-08-02 12:19:21.110 ,5,1,14.,24.0,0.,24.0,1.,24.0,0.,24.0
1979-08-02 12:19:45.110 ,1,1,0.,24.0,0.,24.0,1.,24.0,0.,24.0
1979-08-02 12:20:09.110 ,2,1,1.,24.0,0.,24.0,0.,24.0,0.,24.0
1979-08-02 12:20:33.110 ,6,1,0.,24.0,0.,24.0,1.,24.0,0.,24.0
1979-08-02 12:20:57.110 ,5,1,13.,24.0,0.,24.0,3.,24.0,0.,24.0
1979-08-02 12:21:21.110 ,1,1,1.,24.0,0.,24.0,1.,24.0,0.,24.0
1979-08-02 12:21:45.110 ,2,1,0.,24.0,0.,24.0,1.,24.0,0.,24.0
1979-08-02 12:22:09.110 ,6,1,0.,24.0,0.,24.0,1.,24.0,0.,24.0
1979-08-02 12:22:33.110 ,5,1,18.,24.0,1.,24.0,0.,24.0,0.,24.0
1979-08-02 12:22:57.110 ,1,1,0.,24.0,0.,24.0,1.,24.0,0.,24.0
1979-08-02 12:23:21.110 ,2,1,0.,24.0,0.,24.0,0.,24.0,0.,24.0
1979-08-02 12:23:45.110 ,6,1,0.,24.0,0.,24.0,1.,24.0,0.,24.0
1979-08-02 12:24:09.110 ,5,1,15.,24.0,0.,24.0,1.,24.0,0.,24.0
1979-08-02 12:24:33.110 ,1,1,0.,24.0,0.,24.0,1.,24.0,0.,24.0
1979-08-02 12:24:57.110 ,2,1,0.,24.0,0.,24.0,1.,24.0,0.,24.0
1979-08-02 12:25:21.110 ,6,1,0.,24.0,0.,24.0,2.,24.0,0.,24.0
1979-08-02 12:25:45.110 ,5,1,12.,24.0,0.,24.0,1.,24.0,0.,24.0
1979-08-02 12:26:09.110 ,1,1,0.,24.0,0.,24.0,1.,24.0,0.,24.0
1979-08-02 12:26:33.110 ,2,1,0.,24.0,0.,24.0,0.,24.0,0.,24.0
1979-08-02 12:26:57.110 ,6,1,0.,24.0,1.,24.0,1.,24.0,0.,24.0
1979-08-02 12:27:21.110 ,5,1,11.,24.0,0.,24.0,0.,24.0,0.,24.0
1979-08-02 12:27:45.110 ,1,1,0.,24.0,0.,24.0,0.,24.0,0.,24.0
1979-08-02 12:28:09.110 ,2,1,0.,24.0,0.,24.0,0.,24.0,0.,24.0
1979-08-02 12:28:33.110 ,6,1,0.,24.0,0.,24.0,1.,24.0,0.,24.0
1979-08-02 12:28:57.110 ,5,1,16.,24.0,0.,24.0,1.,24.0,0.,24.0
1979-08-02 12:29:21.110 ,1,1,0.,24.0,0.,24.0,0.,24.0,0.,24.0
1979-08-02 12:29:45.110 ,0,0,0.,24.0,0.,24.0,1.,24.0,0.,24.0
1979-08-02 12:30:09.110 ,0,0,0.,24.0,0.,24.0,2.,24.0,0.,24.0
1979-08-02 12:30:33.110 ,5,1,19.,24.0,0.,24.0,1.,24.0,0.,24.0
1979-08-02 12:30:57.110 ,5,0,0.,24.0,0.,24.0,1.,24.0,0.,24.0
1979-08-02 12:31:21.110 ,4,1,0.,24.0,0.,24.0,2.,24.0,0.,24.0
1979-08-02 12:31:45.110 ,4,0,0.,24.0,1.,24.0,2.,24.0,0.,24.0
1979-08-02 12:32:09.110 ,3,1,0.,24.0,0.,24.0,0.,24.0,0.,24.0
1979-08-02 12:32:33.110 ,3,0,0.,24.0,0.,24.0,0.,24.0,0.,24.0
1979-08-02 12:33:45.110 ,0,0,1.,24.0,0.,24.0,0.,24.0,0.,24.0
1979-08-02 12:34:09.110 ,0,0,0.,24.0,0.,24.0,3.,24.0,0.,24.0
1979-08-02 12:34:33.110 ,0,1,0.,24.0,0.,24.0,4.,24.0,0.,24.0
1979-08-02 12:34:57.110 ,0,0,1.,24.0,0.,24.0,0.,24.0,0.,24.0
1979-08-02 12:35:21.110 ,0,1,0.,24.0,0.,24.0,0.,24.0,0.,24.0
1979-08-02 12:35:45.110 ,0,0,0.,24.0,0.,24.0,1.,24.0,0.,24.0
1979-08-02 12:36:09.110 ,1,1,0.,24.0,0.,24.0,2.,24.0,0.,24.0
1979-08-02 12:36:33.110 ,1,0,0.,24.0,0.,24.0,1.,24.0,0.,24.0
1979-08-02 12:36:57.110 ,2,1,0.,24.0,0.,24.0,0.,24.0,0.,24.0
1979-08-02 12:37:21.110 ,2,0,0.,24.0,0.,24.0,1.,24.0,0.,24.0
1979-08-02 12:37:45.110 ,3,1,0.,24.0,0.,24.0,0.,24.0,0.,24.0
1979-08-02 12:38:09.110 ,3,0,0.,24.0,0.,24.0,2.,24.0,0.,24.0
1979-08-02 12:38:33.110 ,4,1,0.,24.0,0.,24.0,2.,24.0,0.,24.0
1979-08-02 12:38:57.110 ,4,0,0.,24.0,0.,24.0,2.,24.0,0.,24.0
1979-08-02 12:39:21.110 ,5,1,0.,24.0,0.,24.0,1.,24.0,0.,24.0
1979-08-02 12:39:45.110 ,5,0,0.,24.0,0.,24.0,4.,24.0,0.,24.0
1979-08-02 12:40:09.110 ,6,1,0.,24.0,0.,24.0,1.,24.0,0.,24.0
1979-08-02 12:40:33.110 ,6,0,0.,24.0,0.,24.0,5.,24.0,0.,24.0
1979-08-02 12:40:57.110 ,7,1,3.,24.0,0.,24.0,3.,24.0,0.,24.0
1979-08-02 12:41:21.110 ,7,0,23.,24.0,0.,24.0,2.,24.0,0.,24.0
1979-08-02 12:41:45.110 ,7,1,23.,24.0,0.,24.0,3.,24.0,0.,24.0
1979-08-02 12:42:09.110 ,7,0,33.,24.0,0.,24.0,3.,24.0,0.,24.0
1979-08-02 12:42:33.110 ,6,1,22.,24.0,0.,24.0,1.,24.0,0.,24.0
1979-08-02 12:42:57.110 ,6,0,0.,24.0,0.,24.0,0.,24.0,0.,24.0
1979-08-02 12:43:21.110 ,5,1,0.,24.0,0.,24.0,2.,24.0,0.,24.0
1979-08-02 12:43:45.110 ,5,0,0.,24.0,1.,24.0,1.,24.0,0.,24.0
1979-08-02 12:44:09.110 ,4,1,0.,24.0,0.,24.0,1.,24.0,0.,24.0
1979-08-02 12:44:33.110 ,4,0,0.,24.0,0.,24.0,3.,24.0,0.,24.0
1979-08-02 12:44:57.110 ,3,1,1.,24.0,0.,24.0,1.,24.0,0.,24.0
1979-08-02 12:45:21.110 ,3,0,0.,24.0,0.,24.0,1.,24.0,0.,24.0
1979-08-02 12:45:45.110 ,2,1,0.,24.0,0.,24.0,3.,24.0,0.,24.0
1979-08-02 12:46:09.110 ,2,0,0.,24.0,0.,24.0,2.,24.0,0.,24.0
1979-08-02 12:46:33.110 ,1,1,0.,24.0,0.,24.0,1.,24.0,0.,24.0
1979-08-02 12:46:57.110 ,1,0,0.,24.0,0.,24.0,1.,24.0,0.,24.0
1979-08-02 12:47:21.110 ,0,1,0.,24.0,0.,24.0,0.,24.0,0.,24.0
1979-08-02 12:47:45.110 ,0,0,0.,24.0,0.,24.0,1.,24.0,0.,24.0
1979-08-02 12:48:09.110 ,0,1,0.,24.0,0.,24.0,1.,24.0,0.,24.0
1979-08-02 12:48:33.110 ,0,0,0.,24.0,0.,24.0,1.,24.0,0.,24.0
1979-08-02 12:48:57.110 ,1,1,0.,24.0,0.,24.0,1.,24.0,0.,24.0
1979-08-02 12:49:21.110 ,1,0,1.,24.0,0.,24.0,0.,24.0,0.,24.0
1979-08-02 12:49:45.110 ,2,1,0.,24.0,0.,24.0,1.,24.0,0.,24.0
1979-08-02 12:50:09.110 ,2,0,0.,24.0,0.,24.0,1.,24.0,0.,24.0
1979-08-02 12:50:33.110 ,3,1,0.,24.0,0.,24.0,3.,24.0,0.,24.0
1979-08-02 12:50:57.110 ,3,0,0.,24.0,0.,24.0,0.,24.0,0.,24.0
1979-08-02 12:51:21.110 ,4,1,0.,24.0,0.,24.0,1.,24.0,0.,24.0
1979-08-02 12:51:45.110 ,4,0,0.,24.0,0.,24.0,1.,24.0,0.,24.0
1979-08-02 12:52:09.110 ,5,1,0.,24.0,0.,24.0,0.,24.0,0.,24.0
1979-08-02 12:52:33.110 ,5,0,0.,24.0,0.,24.0,0.,24.0,0.,24.0
1979-08-02 12:52:57.110 ,6,1,0.,24.0,0.,24.0,0.,24.0,0.,24.0
1979-08-02 12:53:21.110 ,6,0,0.,24.0,0.,24.0,2.,24.0,0.,24.0
1979-08-02 12:53:45.110 ,7,1,5.,24.0,0.,24.0,1.,24.0,0.,24.0
1979-08-02 12:54:09.110 ,7,0,,0,,0,,0,,0
1979-08-02 12:54:33.110 ,7,1,36.,24.0,0.,24.0,2.,24.0,0.,24.0
1979-08-02 12:54:57.110 ,7,0,23.,24.0,0.,24.0,2.,24.0,0.,24.0
1979-08-02 12:55:21.110 ,6,1,23.,24.0,0.,24.0,3.,24.0,0.,24.0
1979-08-02 12:55:45.110 ,6,0,0.,24.0,0.,24.0,4.,24.0,0.,24.0
1979-08-02 12:56:09.110 ,5,1,0.,24.0,0.,24.0,1.,24.0,0.,24.0
1979-08-02 12:56:33.110 ,5,0,0.,24.0,0.,24.0,2.,24.0,0.,24.0
1979-08-02 12:56:57.110 ,4,1,0.,24.0,0.,24.0,2.,24.0,0.,24.0
1979-08-02 12:57:21.110 ,4,0,0.,24.0,0.,24.0,2.,24.0,0.,24.0
1979-08-02 12:57:45.110 ,3,1,0.,24.0,0.,24.0,1.,24.0,0.,24.0
1979-08-02 12:58:09.110 ,3,0,1.,24.0,0.,24.0,0.,24.0,0.,24.0
1979-08-02 12:58:33.110 ,2,1,0.,24.0,0.,24.0,2.,24.0,0.,24.0
1979-08-02 12:58:57.110 ,2,0,0.,24.0,1.,24.0,2.,24.0,0.,24.0
1979-08-02 12:59:21.110 ,1,1,0.,24.0,0.,24.0,2.,24.0,0.,24.0
1979-08-02 12:59:45.110 ,1,0,0.,24.0,0.,24.0,2.,24.0,0.,24.0
1979-08-02 13:00:09.110 ,0,1,0.,24.0,0.,24.0,1.,24.0,0.,24.0
1979-08-02 13:00:33.110 ,0,0,0.,24.0,1.,24.0,0.,24.0,0.,24.0
1979-08-02 13:00:57.110 ,0,1,0.,24.0,0.,24.0,2.,24.0,0.,24.0
1979-08-02 13:01:21.110 ,0,0,0.,24.0,0.,24.0,1.,24.0,0.,24.0
1979-08-02 13:01:45.110 ,1,1,0.,24.0,0.,24.0,2.,24.0,0.,24.0
1979-08-02 13:02:09.110 ,1,0,0.,24.0,0.,24.0,0.,24.0,0.,24.0
1979-08-02 13:02:33.110 ,2,1,0.,24.0,0.,24.0,1.,24.0,0.,24.0
1979-08-02 13:02:57.110 ,2,0,0.,24.0,0.,24.0,2.,24.0,0.,24.0
1979-08-02 13:03:21.110 ,3,1,0.,24.0,0.,24.0,2.,24.0,0.,24.0
1979-08-02 13:03:45.110 ,3,0,0.,24.0,0.,24.0,2.,24.0,0.,24.0
1979-08-02 13:04:09.110 ,4,1,0.,24.0,0.,24.0,0.,24.0,0.,24.0
1979-08-02 13:04:33.110 ,4,0,0.,24.0,0.,24.0,1.,24.0,0.,24.0
1979-08-02 13:04:57.110 ,5,1,0.,24.0,0.,24.0,2.,24.0,0.,24.0
1979-08-02 13:05:21.110 ,5,0,0.,24.0,0.,24.0,3.,24.0,0.,24.0
1979-08-02 13:05:45.110 ,6,1,0.,24.0,0.,24.0,2.,24.0,0.,24.0
1979-08-02 13:06:09.110 ,6,0,0.,24.0,0.,24.0,2.,24.0,0.,24.0
1979-08-02 13:06:33.110 ,7,0,3.,24.0,0.,24.0,4.,24.0,0.,24.0
1979-08-02 13:06:57.110 ,7,0,38.,24.0,0.,24.0,5.,24.0,0.,24.0
1979-08-02 13:07:21.110 ,5,1,18.,24.0,0.,24.0,1.,24.0,0.,24.0
1979-08-02 13:07:45.110 ,1,1,0.,24.0,0.,24.0,0.,24.0,0.,24.0
1979-08-02 13:08:09.110 ,2,1,0.,24.0,0.,24.0,0.,24.0,0.,24.0
1979-08-02 13:08:33.110 ,7,1,,0,,0,,0,,0
1979-08-02 13:08:57.110 ,5,1,15.,24.0,0.,24.0,2.,24.0,0.,24.0
1979-08-02 13:09:21.110 ,1,1,0.,24.0,0.,24.0,2.,24.0,0.,24.0
1979-08-02 13:09:45.110 ,2,1,0.,24.0,0.,24.0,0.,24.0,0.,24.0
1979-08-02 13:10:09.110 ,6,1,0.,24.0,0.,24.0,1.,24.0,0.,24.0
1979-08-02 13:10:33.110 ,5,1,18.,24.0,0.,24.0,0.,24.0,0.,24.0
1979-08-02 13:10:57.110 ,1,1,1.,24.0,0.,24.0,0.,24.0,0.,24.0
1979-08-02 13:11:21.110 ,2,1,0.,24.0,0.,24.0,0.,24.0,0.,24.0
1979-08-02 13:11:45.110 ,6,1,0.,24.0,0.,24.0,0.,24.0,0.,24.0
1979-08-02 13:12:09.110 ,5,1,,0,,0,,0,,0
1979-08-02 13:12:33.110 ,1,1,0.,24.0,0.,24.0,2.,24.0,0.,24.0
1979-08-02 13:12:57.110 ,2,1,0.,24.0,0.,24.0,1.,24.0,0.,24.0
1979-08-02 13:13:21.110 ,6,1,0.,24.0,0.,24.0,1.,24.0,0.,24.0
1979-08-02 13:13:45.110 ,5,1,10.,24.0,0.,24.0,0.,24.0,0.,24.0
1979-08-02 13:14:09.110 ,1,1,0.,24.0,0.,24.0,1.,24.0,0.,24.0
1979-08-02 13:14:33.110 ,2,1,0.,24.0,0.,24.0,1.,24.0,0.,24.0
1979-08-02 13:14:57.110 ,6,1,0.,24.0,0.,24.0,1.,24.0,0.,24.0
1979-08-02 13:15:21.110 ,5,1,16.,24.0,0.,24.0,2.,24.0,0.,24.0
1979-08-02 13:15:45.110 ,1,1,0.,24.0,0.,24.0,2.,24.0,0.,24.0
1979-08-02 13:16:09.110 ,2,1,0.,24.0,0.,24.0,2.,24.0,0.,24.0
1979-08-02 13:16:33.110 ,6,1,0.,24.0,0.,24.0,1.,24.0,0.,24.0
1979-08-02 13:16:57.110 ,5,1,17.,24.0,0.,24.0,2.,24.0,0.,24.0
1979-08-02 13:17:21.110 ,1,1,0.,24.0,0.,24.0,0.,24.0,0.,24.0
1979-08-02 13:17:45.110 ,0,0,0.,24.0,0.,24.0,0.,24.0,0.,24.0
1979-08-02 13:18:09.110 ,0,0,0.,24.0,0.,24.0,1.,24.0,0.,24.0
1979-08-02 13:18:33.110 ,5,1,17.,24.0,0.,24.0,1.,24.0,0.,24.0
1979-08-02 13:18:57.110 ,5,0,0.,24.0,0.,24.0,0.,24.0,0.,24.0
1979-08-02 13:19:21.110 ,4,1,0.,24.0,0.,24.0,0.,24.0,0.,24.0
1979-08-02 13:19:45.110 ,4,0,0.,24.0,1.,24.0,1.,24.0,0.,24.0
1979-08-02 13:20:09.110 ,3,1,0.,24.0,0.,24.0,1.,24.0,0.,24.0
1979-08-02 13:20:33.110 ,3,0,0.,24.0,0.,24.0,0.,24.0,0.,24.0
1979-08-02 13:20:57.110 ,2,1,0.,24.0,0.,24.0,0.,24.0,0.,24.0
1979-08-02 13:21:21.110 ,2,0,0.,24.0,0.,24.0,0.,24.0,0.,24.0
1979-08-02 13:21:45.110 ,1,1,0.,24.0,0.,24.0,1.,24.0,0.,24.0
1979-08-02 13:22:09.110 ,1,0,0.,24.0,0.,24.0,0.,24.0,0.,24.0
1979-08-02 13:22:33.110 ,0,1,0.,24.0,0.,24.0,1.,24.0,0.,24.0
1979-08-02 13:22:57.110 ,0,0,0.,24.0,0.,24.0,2.,24.0,0.,24.0
1979-08-02 13:23:21.110 ,0,1,1.,24.0,0.,24.0,2.,24.0,0.,24.0
1979-08-02 13:23:45.110 ,0,0,0.,24.0,0.,24.0,1.,24.0,0.,24.0
1979-08-02 13:24:09.110 ,1,1,0.,24.0,0.,24.0,2.,24.0,0.,24.0
1979-08-02 13:24:33.110 ,1,0,0.,24.0,0.,24.0,1.,24.0,0.,24.0
1979-08-02 13:24:57.110 ,2,1,1.,24.0,0.,24.0,0.,24.0,0.,24.0
1979-08-02 13:25:21.110 ,2,0,0.,24.0,0.,24.0,0.,24.0,0.,24.0
1979-08-02 13:25:45.110 ,3,1,0.,24.0,1.,24.0,2.,24.0,0.,24.0
1979-08-02 13:26:09.110 ,3,0,0.,24.0,0.,24.0,1.,24.0,0.,24.0
1979-08-02 13:26:33.110 ,4,1,0.,24.0,0.,24.0,1.,24.0,0.,24.0
1979-08-02 13:26:57.110 ,4,0,0.,24.0,0.,24.0,0.,24.0,0.,24.0
1979-08-02 13:27:21.110 ,5,1,0.,24.0,0.,24.0,2.,24.0,0.,24.0
1979-08-02 13:27:45.110 ,5,0,0.,24.0,0.,24.0,1.,24.0,0.,24.0
1979-08-02 13:28:09.110 ,6,1,1.,24.0,0.,24.0,0.,24.0,0.,24.0
1979-08-02 13:28:33.110 ,6,0,0.,24.0,0.,24.0,0.,24.0,0.,24.0
1979-08-02 13:28:57.110 ,7,1,7.,24.0,0.,24.0,1.,24.0,0.,24.0
1979-08-02 13:29:21.110 ,7,0,34.,24.0,0.,24.0,0.,24.0,0.,24.0
1979-08-02 13:29:45.110 ,7,1,37.,24.0,0.,24.0,1.,24.0,0.,24.0
1979-08-02 13:28:33.110 ,6,0,0.,24.0,0.,24.0,0.,24.0,0.,24.0
1979-08-02 13:28:57.110 ,7,1,7.,24.0,0.,24.0,1.,24.0,0.,24.0
1979-08-02 13:29:21.110 ,7,0,34.,24.0,0.,24.0,0.,24.0,0.,24.0
1979-08-02 13:29:45.110 ,7,1,37.,24.0,0.,24.0,1.,24.0,0.,24.0
1979-08-02 13:30:09.110 ,7,0,28.,24.0,0.,24.0,0.,24.0,0.,24.0
1979-08-02 13:30:33.110 ,6,1,20.,24.0,0.,24.0,0.,24.0,0.,24.0
1979-08-02 13:30:57.110 ,6,0,0.,24.0,0.,24.0,3.,24.0,0.,24.0
1979-08-02 13:31:21.110 ,5,1,0.,24.0,0.,24.0,0.,24.0,0.,24.0
1979-08-02 13:31:45.110 ,5,0,0.,24.0,0.,24.0,2.,24.0,0.,24.0
1979-08-02 13:32:09.110 ,4,1,0.,24.0,0.,24.0,1.,24.0,0.,24.0
1979-08-02 13:32:33.110 ,4,0,0.,24.0,0.,24.0,1.,24.0,0.,24.0
1979-08-02 13:32:57.110 ,3,1,0.,24.0,0.,24.0,1.,24.0,0.,24.0
1979-08-02 13:33:21.110 ,3,0,0.,24.0,0.,24.0,1.,24.0,0.,24.0
1979-08-02 13:33:45.110 ,2,1,0.,24.0,0.,24.0,0.,24.0,0.,24.0
1979-08-02 13:34:09.110 ,2,0,0.,24.0,0.,24.0,2.,24.0,0.,24.0
1979-08-02 13:34:33.110 ,1,1,1.,24.0,0.,24.0,1.,24.0,0.,24.0
1979-08-02 13:34:57.110 ,1,0,1.,24.0,0.,24.0,2.,24.0,0.,24.0
1979-08-02 13:35:21.110 ,0,1,0.,24.0,0.,24.0,0.,24.0,0.,24.0
1979-08-02 13:35:45.110 ,0,0,0.,24.0,0.,24.0,1.,24.0,0.,24.0
1979-08-02 13:36:09.110 ,0,1,0.,24.0,0.,24.0,0.,24.0,0.,24.0
1979-08-02 13:36:33.110 ,0,0,0.,24.0,0.,24.0,1.,24.0,0.,24.0
1979-08-02 13:36:58.910 ,1,1,0.,24.0,0.,24.0,2.,24.0,0.,24.0
1979-08-02 13:37:21.110 ,1,0,0.,24.0,0.,24.0,1.,24.0,0.,24.0
1979-08-02 13:37:45.110 ,2,1,0.,24.0,0.,24.0,3.,24.0,0.,24.0
1979-08-02 13:38:09.110 ,2,0,0.,24.0,0.,24.0,0.,24.0,0.,24.0
1979-08-02 13:38:33.110 ,3,1,0.,24.0,0.,24.0,0.,24.0,0.,24.0
1979-08-02 13:38:57.110 ,3,0,0.,24.0,0.,24.0,1.,24.0,0.,24.0
1979-08-02 13:39:21.110 ,4,1,0.,24.0,0.,24.0,1.,24.0,0.,24.0
1979-08-02 13:39:45.110 ,4,0,0.,24.0,0.,24.0,1.,24.0,0.,24.0
1979-08-02 13:40:09.110 ,5,1,0.,24.0,0.,24.0,2.,24.0,0.,24.0
1979-08-02 13:40:33.110 ,5,0,0.,24.0,0.,24.0,0.,24.0,0.,24.0
1979-08-02 13:40:57.110 ,6,1,0.,24.0,0.,24.0,1.,24.0,0.,24.0
1979-08-02 13:41:21.110 ,6,0,0.,24.0,0.,24.0,1.,24.0,0.,24.0
1979-08-02 13:41:45.110 ,7,1,9.,24.0,0.,24.0,2.,24.0,0.,24.0
1979-08-02 13:42:09.110 ,7,0,28.,24.0,0.,24.0,3.,24.0,0.,24.0
1979-08-02 13:42:33.110 ,7,1,27.,24.0,0.,24.0,1.,24.0,0.,24.0
1979-08-02 13:42:57.110 ,7,0,20.,24.0,0.,24.0,0.,24.0,0.,24.0
1979-08-02 13:43:21.110 ,6,1,27.,24.0,0.,24.0,0.,24.0,0.,24.0
1979-08-02 13:43:45.110 ,6,0,0.,24.0,0.,24.0,2.,24.0,0.,24.0
1979-08-02 13:44:09.110 ,5,1,0.,24.0,0.,24.0,5.,24.0,0.,24.0
1979-08-02 13:44:33.110 ,5,0,0.,24.0,0.,24.0,0.,24.0,0.,24.0
1979-08-02 13:44:57.110 ,4,1,0.,24.0,0.,24.0,1.,24.0,0.,24.0
1979-08-02 13:45:21.110 ,4,0,2.,24.0,0.,24.0,1.,24.0,0.,24.0
1979-08-02 13:45:45.110 ,3,1,0.,24.0,0.,24.0,1.,24.0,0.,24.0
1979-08-02 13:46:09.110 ,3,0,0.,24.0,0.,24.0,3.,24.0,0.,24.0
1979-08-02 13:46:33.110 ,2,1,0.,24.0,0.,24.0,1.,24.0,0.,24.0
1979-08-02 13:46:57.110 ,2,0,0.,24.0,0.,24.0,1.,24.0,0.,24.0
1979-08-02 13:47:21.110 ,1,1,0.,24.0,1.,24.0,2.,24.0,0.,24.0
1979-08-02 13:47:45.110 ,1,0,0.,24.0,0.,24.0,4.,24.0,0.,24.0
1979-08-02 13:48:09.110 ,0,1,0.,24.0,0.,24.0,1.,24.0,0.,24.0
1979-08-02 13:48:33.110 ,0,0,0.,24.0,0.,24.0,1.,24.0,0.,24.0
1979-08-02 13:48:57.110 ,0,1,0.,24.0,0.,24.0,1.,24.0,0.,24.0
